www.pogodaiklimat.ru

Погода и климат >> Архив погоды >> Украина >> Межгорье


ПОГОДА в Межгорье

  • Прогноз погоды в Межгорье
  • Монитор погоды в Межгорье

АРХИВ ПОГОДЫ в Межгорье

Время (UTC), дата Ветер
(напр.,м/с)
 
Видим.   Явления Облачность Т
(С)
Тd
(С)
f
(%)
Тe
(С)
Тes
(С)
Комфортность P
(гПа)
Po
(гПа)
Тmin
(С)
Tmax
(С)
R
(мм)
R24
(мм)
S
(см)
18 9.06 СЗ 2 20 км 3/0
[Ci fib]
+23.2 +17.7 71 +29 +29 душно 1019.5 1005.5 +29.0
21 9.06 штиль 0 20 км ясно +17.6 +14.9 84 +18 +18 1020.7 1006.4
00 10.06 штиль 0 20 км ясно +15.6 +14.2 91 +15 +15 1022.0 1007.6
03 10.06 штиль 0 20 км ясно +13.6 +12.5 93 +13 +13 1022.5 1008.0
06 10.06 штиль 0 20 км в посл. час туман ясно +17.8 +15.8 88 +18 +27 1021.4 1007.1 +13.4
12 10.06 ЮЗ 1 20 км 8/8 1000 м
[Cu med, cong]
+29.2 +17.7 50 +34 +37 очень
душно
1015.5 1001.8
15 10.06 В 1 20 км 8/8 1000 м
[Cu med, cong]
+26.7 +19.6 65 +32 +34 очень
душно
1014.3 1000.5
18 10.06 Ю 1 20 км 6/0
[Ac trans]
+23.1 +20.5 85 +30 +30 очень
душно
1014.9 1000.9 +31.5
21 10.06 ЮВ 2 20 км ясно +18.3 +17.1 93 +19 +19 1016.9 1002.7
00 11.06 штиль 0 20 км ясно +16.5 +15.3 93 +16 +16 1017.8 1003.5
03 11.06 штиль 0 20 км ясно +13.7 +13.1 96 +13 +13 1018.4 1003.9
06 11.06 штиль 0 20 км ясно +17.7 +15.3 86 +18 +27 1017.7 1003.5 +13.5
09 11.06 Ю 2 20 км 6/6 1500 м
[Cu med, cong]
+27.0 +18.7 60 +32 +39 очень
душно
1015.0 1001.2
12 11.06 Ю 2 20 км 6/6 1000 м
[Cu med, cong]
+30.3 +18.4 49 +35 +41 очень
душно
1013.9 1000.3
15 11.06 СЗ 2 20 км гроза, ливневой дождь 10/10 600 м
[Cb calv]
+18.8 +17.8 94 +21 +21 комфорт 1017.1 1002.9
18 11.06 С 2 20 км {гроза, ливн. осадки} 9/9 600 м
[Sc diur, vesp]
+18.4 +17.4 94 +20 +20 1017.6 1003.4 +32.5 6
21 11.06 штиль 0 20 км 8/0
[Ac trans]
+16.8 +16.3 97 +17 +17 1017.4 1003.1
00 12.06 штиль 0 20 км 8/0
[Ac trans]
+15.7 +14.9 95 +15 +15 1017.7 1003.4
06 12.06 штиль 0 500 м туман ?/? +17.0 +15.7 92 +17 +17 1017.8 1003.5 +15.1
09 12.06 штиль 0 20 км дымка {туман} 4/4 1000 м
[Cu hum]
+26.3 +20.0 68 +32 +45 очень
душно
1015.0 1001.2
12 12.06 ЮВ 8 10 км гроза, ливневой дождь 10/10 600 м
[Cb cap]
+22.4 +16.4 69 +27 +27 душно 1016.4 1002.4
15 12.06 штиль 0 20 км в посл. час ливневой дождь {гроза} 10/10 600 м
[Cb cap]
+19.4 +18.1 92 +21 +21 комфорт 1016.9 1002.7
18 12.06 штиль 0 20 км {гроза} 8/0
[Ac trans]
+18.0 +17.0 94 +18 +18 1016.9 1002.7 +29.5 42
21 12.06 СВ 2 20 км 9/0
[Ac trans]
+15.4 +14.3 93 +15 +15 1017.5 1003.1
00 13.06 СВ 2 20 км 9/0
[Ac trans]
+14.4 +13.5 94 +14 +14 1018.4 1004.0
03 13.06 В 2 200 м туман ?/? +13.2 +13.2 100 +12 +12 1018.2 1003.7
06 13.06 штиль 0 500 м туман ?/? +15.6 +15.1 97 +15 +15 1018.4 1004.0 +13.0
09 13.06 В 1 20 км {туман} 3/3 1000 м
[Cu hum]
+24.3 +18.4 70 +29 +42 душно 1016.3 1002.4
12 13.06 ЮЗ 2 20 км гроза без осадков {туман} 8/8 600 м
[Cb calv]
+29.2 +19.6 56 +35 +38 очень
душно
1014.8 1001.1
15 13.06 В 4 20 км {гроза} 6/6 600 м
[Cb calv]
+25.7 +20.5 73 +32 +33 очень
душно
1014.9 1001.1
18 13.06 штиль 0 20 км {гроза} ясно +23.1 +19.5 80 +30 +30 очень
душно
1015.4 1001.4 +29.6
00 14.06 штиль 0 20 км ясно +15.3 +14.6 96 +15 +15 1018.9 1004.5
06 14.06 штиль 0 20 км в посл. час туман ясно +17.6 +15.9 90 +18 +27 1019.1 1004.8 +14.0
12 14.06 З 2 20 км 4/4 1000 м
[Cu med, cong]
+30.8 +20.8 55 +38 +47 очень
душно
1015.4 1001.8
18 14.06 СВ 2 20 км слаб. ливневой дождь {гроза} 10/10 600 м
[Cb cap]
+17.3 +16.4 94 +18 +18 1019.4 1005.1 +31.5 31
00 15.06 штиль 0 20 км 6/0
[As op]
+16.5 +15.7 95 +16 +16 1019.6 1005.3
06 15.06 штиль 0 200 м туман ?/? +16.0 +16.0 100 +16 +16 1019.4 1005.0 +15.0
12 15.06 штиль 0 20 км {туман} 4/4 1000 м
[Cu med, cong]
+30.2 +19.9 54 +36 +49 очень
душно
1013.8 1000.2
18 15.06 ЮВ 1 20 км 8/6 1000 м
[Cu med, cong Ci fib]
+27.2 +21.0 69 +34 +34 очень
душно
1012.2 998.5 +32.0
06 16.06 С 1 20 км 3/0
[Ci fib]
+19.1 +17.1 88 +22 +29 комфорт 1014.8 1000.7 +14.7
12 16.06 З 2 20 км гроза без осадков 8/8 600 м
[Cb calv]
+30.1 +21.2 59 +38 +41 очень
душно
1010.9 997.3

 

Местоположение метеостанции Межгорье (Закарпатская область, Украина): широта 49.71 долгота 24.59 высота над уровнем моря 120 м.

В архиве по умолчанию представлена погода в Межгорье за последнюю неделю. Архивные данные за месяц целиком и за предыдущие месяцы, начиная с января 2011 года, Вы можете получить, выбрав интересующий диапазон дат из раскрывающегося списка и нажав кнопку "Ввод!".


*Определитесь, кто Вы:
робот инопланетянин человек

Внимание! Время в таблицах - всемирное. Для получения местного времени необходимо прибавить поправку, которая равна 2 ч.

Смотрите также архив погоды в соседних городах и на ближайших метеорологических станциях:

Погода в Бережанах (Львовская область, Украина) (41 км)
Погода в Каменке-Бугской (Львовская область, Украина) (47 км)
Погода в Львове (Львовская область, Украина) (48 км)
Погода в Бродах (Львовская область, Украина) (59 км)
Погода в Стрые (Львовская область, Украина) (77 км)
Погода в Тернополе (Тернопольская область, Украина) (80 км)
Погода в Ивано-Франковске (Ивано-Франковская область, Украина) (83 км)
Погода в Дрогобыче (Львовская область, Украина) (87 км)
Погода в Славском (Львовская область, Украина) (90 км)
Погода в Яворове (Львовская область, Украина) (90 км)

Пояснения к столбцам:

Ветер - указаны скорость ветра в м/с - средняя за 10 мин, порывы в срок и между сроками (в фигурных скобках) и направление, откуда дует ветер: С - северный, СВ - северо-восточный, В - восточный, ЮВ - юго-восточный, Ю - южный, ЮЗ - юго-западный, З - западный, СЗ - северо-западный.
Видимость - горизонтальная дальность видимости в метрах или километрах. При видимости от 1 до 10 км при отсутствии осадков обычно наблюдается дымка, при ухудшении видимости до 1 км и менее - туман. В сухую погоду видимость может ухудшаться дымом, пылью или мглою.
Явления - указаны атмосферные явления, наблюдавшиеся в срок или в последний час перед сроком; фигурными скобками обозначены явления, наблюдавшиеся между сроками (за 1-3 часа до срока); квадратными скобками обозначены град или гололедные отложения с указанием их диаметра в мм.
Облачность - указаны через наклонную черту общая и нижняя облачность в баллах и высота нижней границы облаков в метрах; квадратными скобками обозначены формы облаков: Ci - перистые, Cs - перисто-слоистые, Cc - перисто-кучевые, Ac - высококучевые, As - высокослоистые, Sc - слоисто-кучевые, Ns - слоисто-дождевые, Cu - кучевые, Cb - кучево-дождевые. Подробнее классификацию облаков см. в Атласе облаков (PDF).
T - Температура воздуха - температура, измеренная на высоте 2 м над землей.
Td - Температура точки росы - температура, при понижении до которой содержащийся в воздухе водяной пар достигнет насыщения.
f - Относительная влажность воздуха - влажноcть воздуха, измеренная на высоте 2 м над землей.
Te - Эффективная температура - температура, которую ощущает одетый по сезону человек в тени. Характеристика душности погоды. При расчете учитывается влияние влажности воздуха и скорости ветра на теплоощущения человека.
Tes - Эффективная температура на солнце - температура, которую ощущает человек, с поправкой на солнечный нагрев. Характеристика знойности погоды. Зависит от высоты солнца над горизонтом, облачности и скорости ветра. Ночью, в пасмурную погоду, а также при ветре 12 м/с и более поправка равна нулю.
P - Атмосферное давление - приведенное к уровню моря атмосферное давление.
Po - Атмосферное давление - измеренное на уровне метеостанции атмосферное давление.
Tmin - Минимальная температура - минимум температуры воздуха на высоте 2 м над землей.
Tmax - Максимальная температура - максимум температуры воздуха на высоте 2 м над землей.
R - Количество осадков - Количество выпавших осадков за период времени, мм. При наведении курсора мыши на число - период времени, за который выпало указанное количество осадков.
R24 - Количество осадков - Количество выпавших осадков за 24 часа, мм.
S - Снежный покров - Высота снежного покрова, см. При наведении курсора мыши на число - состояние снежного покрова и степень покрытия местности в баллах.